Flag for Cote d'Ivoire (Ivory Coast) Weather past 2 weeks in Abidjan, Cote d'Ivoire (Ivory Coast)

Now
77 °F

Passing clouds.


Feels Like: 78 °F
Forecast: N/A
Wind: 6 mph from West

Location: Abidjan Airport

Current Time: Jul 4, 2015 at 10:31:22 PM

Latest Report: Jul 4, 2015 at 10:00 PM


Visibility: N/A

Pressure: N/A

Humidity: 94%

Dew point: 75 °F

Location of AbidjanLocation

Historic Weather in Abidjan — Graph

°F

Abidjan temperature yesterday

Maximum temperature yesterday: 84 °F (at 3:00 PM)
Minimum temperature yesterday: 73 °F (at 12:00 AM)
Average temperature yesterday: 78 °F

Past Weeks' High & Low Weather Summary

 TemperatureHumidityPressure
High84 °F (Jun 20, 10:30 AM)100% (Jun 21, 7:00 AM)30.12 "Hg (Jun 21, 7:00 AM)
Low72 °F (Jul 2, 8:30 PM)74% (Jun 20, 10:30 AM)29.89 "Hg (Jul 2, 3:30 PM)
Average79 °F88%29.99 "Hg
* Reported Jun 19 9:00 PM — Jul 4 9:00 PM, Abidjan, Weather by CustomWeather, © 2015

Note: Actual official high and low records may vary slightly from our data, if they occured in-between our weather recording intervals... More about our weather records

Advertising

Abidjan weather history for previous 24 hours

 ConditionsComfort  
Time TempWeatherWind HumidityBarometerVisibility
9:00 PM
Sat, Jul 4
77 °FPassing clouds.6 mph94%29.95 "HgN/A
8:30 PM77 °FPassing clouds.5 mph94%29.95 "HgN/A
8:00 PM77 °FPassing clouds.6 mph94%29.92 "HgN/A
7:30 PM77 °FPassing clouds.7 mph94%29.92 "HgN/A
7:00 PM77 °FPassing clouds.8 mph94%29.92 "HgN/A
6:30 PM79 °FScattered clouds.8 mph89%29.92 "HgN/A
6:00 PM79 °FScattered clouds.8 mph89%29.92 "HgN/A
5:30 PM81 °FPartly sunny.7 mph84%29.92 "HgN/A
5:00 PM81 °FPartly sunny.7 mph84%29.92 "HgN/A
4:30 PM82 °FPartly sunny.9 mph79%29.92 "HgN/A
4:00 PM82 °FPartly sunny.10 mph79%29.92 "HgN/A
3:30 PM82 °FPartly sunny.12 mph79%29.92 "HgN/A
3:00 PM82 °FPartly sunny.10 mph79%29.92 "HgN/A
2:30 PM82 °FPartly sunny.10 mph79%29.95 "HgN/A
2:00 PM82 °FBroken clouds.10 mph79%29.95 "HgN/A
1:30 PM82 °FBroken clouds.10 mph79%29.95 "HgN/A
1:00 PM82 °FBroken clouds.12 mph79%29.98 "HgN/A
12:30 PM82 °FBroken clouds.10 mph79%29.98 "Hg5 mi
12:00 PM82 °FBroken clouds.12 mph79%29.98 "Hg5 mi
11:30 AM82 °FBroken clouds.12 mph79%29.98 "Hg5 mi
11:00 AM81 °FBroken clouds.10 mph84%29.98 "Hg5 mi
10:30 AM81 °FBroken clouds.10 mph84%29.98 "Hg5 mi
10:00 AM81 °FBroken clouds.10 mph89%29.98 "Hg5 mi
9:30 AM81 °FBroken clouds.9 mph84%29.98 "Hg5 mi
9:00 AM81 °FBroken clouds.9 mph89%29.98 "Hg5 mi
8:30 AM79 °FBroken clouds.7 mph89%29.98 "Hg5 mi
8:00 AM79 °FBroken clouds.5 mph89%29.98 "Hg5 mi
7:30 AM79 °FPartly sunny.5 mph89%29.98 "HgN/A
7:00 AM77 °FPartly sunny.3 mph94%29.95 "HgN/A
6:30 AM77 °FPartly sunny.3 mph94%29.95 "HgN/A
6:00 AM77 °FPartly cloudy.5 mph94%29.95 "HgN/A
5:30 AM77 °FPartly cloudy.3 mph94%29.95 "HgN/A
5:00 AM77 °FPartly cloudy.3 mph94%29.95 "HgN/A
4:30 AM77 °FPartly cloudy.2 mph94%29.92 "HgN/A
4:00 AM77 °FPartly cloudy.2 mph94%29.92 "HgN/A
3:30 AM77 °FPartly cloudy.5 mph94%29.92 "HgN/A
3:00 AM77 °FPartly cloudy.5 mph94%29.92 "HgN/A
2:30 AM77 °FPartly cloudy.6 mph94%29.95 "HgN/A
2:00 AM77 °FPartly cloudy.5 mph94%29.95 "HgN/A
1:30 AM77 °FPartly cloudy.5 mph94%29.95 "HgN/A
1:00 AM77 °FPartly cloudy.5 mph94%29.95 "HgN/A
12:30 AM77 °FPartly cloudy.6 mph94%29.95 "HgN/A
12:00 AM79 °FPartly cloudy.8 mph89%29.95 "HgN/A
11:30 PM
Fri, Jul 3
77 °FPartly cloudy.8 mph94%29.98 "HgN/A
11:00 PM77 °FPartly cloudy.7 mph94%29.98 "HgN/A
10:30 PM77 °FPassing clouds.6 mph94%29.98 "HgN/A
10:00 PM77 °FPassing clouds.7 mph94%29.98 "HgN/A
Weather by CustomWeather, © 2015

See weather overviewHow to use our weather pages